Showing default

OPS 9332 (IDSCS 17), 2863

Orbit data source: Space-Track

OPS 9332 (IDSCS 17), 2863 is a payload satellite owned by SAMSO (US) in GEO that was launched on Sat, 01 Jul 1967 UTC via a TITAN IIIC launch vehicle from the Air Force Eastern Test Range (AFETR). Payload-class satellites include a variety of spacecraft equipped with specific instruments for various scientific and technological missions. These include communications satellites like Starlink; space stations such as the ISS; scientific satellites like the Hubble; Earth observation satellites from companies like Planet Labs, Umbra, and HawkEye 360; GPS; miniature CubeSats for education and research; and military/defense satellites.

Loading next visibility...
Identifier
2863, 1967-066B
Orbit
GEO
Country
Flag of USUS
Related business
Manufacturer
Philco-Ford WDL
Mission
Non-operational Defense Communications
Bus & Motor
IDCSP, Unknown motor
Mass
45 kg wet, 45 kg dry
Launch date (UTC)
1967-07-01 (58 years ago)
Launch vehicle
TITAN IIIC
Launch site
Air Force Eastern Test Range (AFETR)
Object type
Payload
Rocket body
Debris
Shape & HBR
Poly, 0.5 m
Radar Cross Section
0.926 m², Medium (>0.1 m² and < 1m²)

Expand to show TLE details & history
Last TLE update: 1 day ago

TLE from 1 day ago
0 OPS 9332 (IDSCS 17)
1 02863U 67066B   25241.92915235 -.00000093  00000-0  00000-0 0  9997
2 02863   2.1821 103.8454 0060268 227.7010 209.4158  1.09897408121527
Epoch: 2025-08-29T22:17Z
TLE epoch observation values (Epoch: 2025-08-29T22:17:58.763Z)
Latitude
2.13736°
Longitude
-132.2559°
Altitude
33,495.754 km
Speed
3.153 km/s
True Right ascension
12h 02m 26s
True Declination
2° 08' 06"
Sunlit
Object was in daylight at epoch
Visualization orbit readout
Latitude
Unknown
Longitude
Unknown
Altitude
Unknown
Speed
Unknown
Apparent Right ascension
Unknown
Apparent Declination
Unknown
Sunlit
N/A
Visualization observer readout
Local Sidereal Time
15:41:23
Azimuth
Unknown
Elevation
Unknown
Doppler factor
Unknown
Orbital elements
Apogee altitude
33,527.308 km
Perigee altitude
33,049.185 km
Semi-major axis
39,666.383 km
Eccentricity
0.00603
Inclination
2.1821°
RAAN
103.8454°
Arg. of periapsis
227.701°
True anomaly
209.07882°
Mean anomaly
209.4158°
Eccentric anomaly
209.24709°
Mean motion
0.27473 °/min
Orbital period
1,310.37 mins
BSTAR
0
Loading maneuver chart data...
Computing Atmospheric mass density...
Loading historical data...
Loading historical data...
Loading historical data...
Loading historical data...
Loading historical data...
Loading historical data...
Loading historical data...

Documentation

Showing up to 5 results
|